AUA240L LOWW-EDDC

Flight info

Callsign AUA240L
Flight time 0h 52m
Altitude 30000
Route LANUX DCT VLM DCT HDO
Aircraft E195/M-SDE3GILORVW/S

Departure

Time 2026-04-26 17:09
Airport Vienna International Airport (LOWW)

Arrival

Time 2026-04-26 18:01
Airport Dresden Airport (EDDC)
Time Latitude Longitude Altitude Speed Heading
2026-04-26 16:40 48.11918 16.56719 592 ft 0 kts 206°
2026-04-26 16:49 48.11918 16.56718 592 ft 0 kts 206°
2026-04-26 16:50 48.11922 16.56721 592 ft 2 kts 206°
2026-04-26 16:50 48.11935 16.56731 592 ft 2 kts 206°
2026-04-26 16:51 48.11949 16.56741 591 ft 2 kts 206°
2026-04-26 16:51 48.11961 16.56750 590 ft 0 kts 206°
2026-04-26 16:51 48.11971 16.56755 590 ft 2 kts 191°
2026-04-26 16:51 48.11986 16.56755 589 ft 2 kts 167°
2026-04-26 16:52 48.12000 16.56746 588 ft 2 kts 143°
2026-04-26 16:52 48.12004 16.56742 588 ft 2 kts 136°
2026-04-26 16:52 48.12013 16.56723 588 ft 0 kts 115°
2026-04-26 16:54 48.12012 16.56724 588 ft 1 kts 115°
2026-04-26 16:54 48.12013 16.56747 588 ft 4 kts 77°
2026-04-26 16:54 48.12014 16.56773 588 ft 0 kts 101°
2026-04-26 16:55 48.12014 16.56774 588 ft 0 kts 101°
2026-04-26 16:55 48.12013 16.56783 588 ft 2 kts 103°
2026-04-26 16:55 48.11999 16.56837 588 ft 7 kts 115°
2026-04-26 16:56 48.11958 16.56966 593 ft 4 kts 115°
2026-04-26 16:56 48.11947 16.56999 594 ft 2 kts 115°
2026-04-26 16:56 48.11933 16.57040 594 ft 6 kts 117°
2026-04-26 16:57 48.11906 16.57123 595 ft 10 kts 115°
2026-04-26 16:57 48.11865 16.57198 596 ft 9 kts 137°
2026-04-26 16:57 48.11808 16.57397 594 ft 11 kts 87°
2026-04-26 16:58 48.11776 16.57482 593 ft 10 kts 159°
2026-04-26 16:58 48.11753 16.57492 593 ft 10 kts 165°
2026-04-26 16:58 48.11561 16.57575 595 ft 12 kts 163°
2026-04-26 16:59 48.11472 16.57612 596 ft 14 kts 164°
2026-04-26 16:59 48.11250 16.57707 595 ft 16 kts 165°
2026-04-26 17:00 48.11079 16.57779 596 ft 12 kts 164°
2026-04-26 17:00 48.10913 16.57852 598 ft 13 kts 163°
2026-04-26 17:00 48.10811 16.57892 598 ft 15 kts 166°
2026-04-26 17:01 48.10703 16.57939 600 ft 16 kts 163°
2026-04-26 17:01 48.10587 16.57993 603 ft 17 kts 161°
2026-04-26 17:01 48.10461 16.58040 603 ft 19 kts 165°
2026-04-26 17:01 48.10334 16.58094 605 ft 19 kts 164°
2026-04-26 17:02 48.10200 16.58151 605 ft 19 kts 165°
2026-04-26 17:02 48.10075 16.58205 605 ft 18 kts 163°
2026-04-26 17:02 48.09950 16.58256 606 ft 19 kts 166°
2026-04-26 17:02 48.09815 16.58313 605 ft 19 kts 163°
2026-04-26 17:03 48.09679 16.58373 604 ft 21 kts 165°
2026-04-26 17:03 48.09537 16.58431 603 ft 19 kts 165°
2026-04-26 17:03 48.09402 16.58488 602 ft 21 kts 164°
2026-04-26 17:03 48.09256 16.58552 599 ft 21 kts 165°
2026-04-26 17:04 48.09101 16.58616 595 ft 21 kts 165°
2026-04-26 17:04 48.08985 16.58665 591 ft 18 kts 163°
2026-04-26 17:04 48.08872 16.58715 587 ft 12 kts 159°
2026-04-26 17:04 48.08808 16.58797 583 ft 12 kts 121°
2026-04-26 17:05 48.08789 16.58901 579 ft 5 kts 89°
2026-04-26 17:05 48.08791 16.58923 579 ft 0 kts 82°
2026-04-26 17:06 48.08791 16.58926 579 ft 2 kts 82°
2026-04-26 17:07 48.08799 16.58968 578 ft 5 kts 70°
2026-04-26 17:07 48.08822 16.59030 578 ft 8 kts 50°
2026-04-26 17:07 48.08870 16.59084 577 ft 9 kts 26°
2026-04-26 17:07 48.08931 16.59106 578 ft 7 kts 356°
2026-04-26 17:08 48.08943 16.59102 579 ft 0 kts 346°
2026-04-26 17:08 48.08945 16.59102 579 ft 2 kts 346°
2026-04-26 17:08 48.09145 16.59020 584 ft 63 kts 345°
2026-04-26 17:08 48.09773 16.58761 596 ft 123 kts 345°
2026-04-26 17:09 48.10779 16.58340 673 ft 162 kts 346°
2026-04-26 17:09 48.11141 16.58187 830 ft 165 kts 345°
2026-04-26 17:09 48.12977 16.57411 1979 ft 171 kts 356°
2026-04-26 17:09 48.14058 16.57897 2804 ft 169 kts 25°
2026-04-26 17:10 48.15037 16.58672 3717 ft 163 kts 26°
2026-04-26 17:10 48.16155 16.59613 3936 ft 199 kts 27°
2026-04-26 17:10 48.17273 16.60608 4905 ft 175 kts 27°
2026-04-26 17:10 48.18203 16.61605 5075 ft 158 kts 34°
2026-04-26 17:11 48.19005 16.62789 5027 ft 169 kts 39°
2026-04-26 17:11 48.19908 16.63915 5585 ft 166 kts 26°
2026-04-26 17:11 48.20970 16.64715 6016 ft 175 kts 15°
2026-04-26 17:11 48.22140 16.64583 6248 ft 183 kts 316°
2026-04-26 17:12 48.23778 16.61475 7369 ft 188 kts 311°
2026-04-26 17:12 48.24675 16.59899 7778 ft 205 kts 306°
2026-04-26 17:13 48.26234 16.56949 10067 ft 161 kts 312°
2026-04-26 17:13 48.26954 16.55718 10742 ft 159 kts 311°
2026-04-26 17:13 48.28425 16.52714 11614 ft 190 kts 308°
2026-04-26 17:14 48.29310 16.51097 12008 ft 207 kts 314°
2026-04-26 17:14 48.31567 16.47977 13240 ft 224 kts 320°
2026-04-26 17:14 48.32767 16.46465 13974 ft 228 kts 320°
2026-04-26 17:15 48.35093 16.43141 14923 ft 232 kts 314°
2026-04-26 17:15 48.36115 16.41466 16062 ft 217 kts 314°
2026-04-26 17:15 48.37191 16.39772 16618 ft 226 kts 315°
2026-04-26 17:16 48.38332 16.38063 17252 ft 231 kts 316°
2026-04-26 17:16 48.39453 16.36327 18006 ft 230 kts 314°
2026-04-26 17:16 48.40569 16.34566 18694 ft 231 kts 314°
2026-04-26 17:16 48.41716 16.32843 19446 ft 228 kts 315°
2026-04-26 17:17 48.42851 16.31146 20119 ft 228 kts 315°
2026-04-26 17:17 48.44009 16.29477 20609 ft 235 kts 317°
2026-04-26 17:17 48.45270 16.27875 21099 ft 242 kts 321°
2026-04-26 17:17 48.46610 16.26339 21763 ft 241 kts 321°
2026-04-26 17:18 48.47876 16.24763 22553 ft 232 kts 309°
2026-04-26 17:18 48.48835 16.23040 23635 ft 209 kts 310°
2026-04-26 17:18 48.49755 16.21496 24435 ft 194 kts 311°
2026-04-26 17:18 48.50660 16.20039 24901 ft 192 kts 312°
2026-04-26 17:19 48.52663 16.16918 25098 ft 222 kts 313°
2026-04-26 17:19 48.53813 16.15169 24967 ft 247 kts 313°
2026-04-26 17:19 48.55054 16.13294 25230 ft 257 kts 313°
2026-04-26 17:20 48.56335 16.11332 25553 ft 268 kts 313°
2026-04-26 17:20 48.56783 16.10649 25672 ft 271 kts 313°
2026-04-26 17:20 48.59031 16.07228 26356 ft 282 kts 313°
2026-04-26 17:20 48.60418 16.05119 26818 ft 286 kts 313°
2026-04-26 17:21 48.61774 16.03057 27075 ft 268 kts 313°
2026-04-26 17:21 48.63042 16.01132 27258 ft 246 kts 313°
2026-04-26 17:21 48.64196 15.99361 27382 ft 228 kts 311°
2026-04-26 17:21 48.65230 15.97709 27445 ft 213 kts 310°
2026-04-26 17:22 48.66258 15.96032 27627 ft 218 kts 311°
2026-04-26 17:22 48.67311 15.94347 27830 ft 225 kts 311°
2026-04-26 17:22 48.68431 15.92552 27892 ft 243 kts 311°
2026-04-26 17:22 48.69630 15.90635 27972 ft 259 kts 311°
2026-04-26 17:23 48.70902 15.88617 28041 ft 277 kts 315°
2026-04-26 17:23 48.72380 15.86604 28113 ft 295 kts 315°
2026-04-26 17:23 48.73921 15.84390 28180 ft 312 kts 314°
2026-04-26 17:23 48.75518 15.82010 28236 ft 330 kts 313°
2026-04-26 17:24 48.77175 15.79495 28285 ft 348 kts 313°
2026-04-26 17:24 48.78913 15.76837 28333 ft 365 kts 313°
2026-04-26 17:24 48.80724 15.74057 28532 ft 378 kts 313°
2026-04-26 17:24 48.82605 15.71164 29019 ft 383 kts 313°
2026-04-26 17:25 48.84467 15.68295 29687 ft 383 kts 313°
2026-04-26 17:25 48.86314 15.65447 30180 ft 373 kts 313°
2026-04-26 17:25 48.89859 15.59939 30278 ft 363 kts 317°
2026-04-26 17:26 48.91919 15.57714 30372 ft 362 kts 328°
2026-04-26 17:26 48.94199 15.56099 30462 ft 361 kts 334°
2026-04-26 17:26 48.96519 15.54667 30193 ft 359 kts 334°
2026-04-26 17:26 48.98859 15.53188 30259 ft 373 kts 333°
2026-04-26 17:27 49.01320 15.51618 30255 ft 389 kts 333°
2026-04-26 17:27 49.03846 15.50001 30250 ft 404 kts 334°
2026-04-26 17:27 49.06469 15.48319 30243 ft 417 kts 334°
2026-04-26 17:27 49.09150 15.46599 30234 ft 421 kts 334°
2026-04-26 17:28 49.14581 15.43106 30231 ft 420 kts 334°
2026-04-26 17:28 49.19962 15.39635 30229 ft 419 kts 334°
2026-04-26 17:29 49.23515 15.37339 30228 ft 419 kts 334°
2026-04-26 17:29 49.30667 15.32706 30233 ft 419 kts 333°
2026-04-26 17:30 49.36011 15.29234 30234 ft 419 kts 333°
2026-04-26 17:30 49.41360 15.25751 30235 ft 419 kts 333°
2026-04-26 17:31 49.46727 15.22249 30236 ft 418 kts 333°
2026-04-26 17:31 49.52099 15.18734 30237 ft 419 kts 333°
2026-04-26 17:32 49.57451 15.15224 30237 ft 418 kts 333°
2026-04-26 17:32 49.62835 15.11684 30237 ft 419 kts 333°
2026-04-26 17:33 49.68185 15.08159 30237 ft 418 kts 333°
2026-04-26 17:34 49.76387 15.03361 30239 ft 420 kts 336°
2026-04-26 17:34 49.81901 15.00295 30244 ft 421 kts 336°
2026-04-26 17:35 49.87403 14.97223 30255 ft 421 kts 336°
2026-04-26 17:35 49.92874 14.94161 30260 ft 420 kts 336°
2026-04-26 17:36 49.98386 14.91069 30262 ft 420 kts 336°
2026-04-26 17:36 50.03914 14.87960 30261 ft 421 kts 336°
2026-04-26 17:37 50.09380 14.84880 30258 ft 411 kts 336°
2026-04-26 17:37 50.14673 14.81887 30267 ft 406 kts 336°
2026-04-26 17:38 50.19986 14.78876 29905 ft 409 kts 336°
2026-04-26 17:38 50.22671 14.77353 29466 ft 405 kts 336°
2026-04-26 17:38 50.25270 14.75876 29026 ft 400 kts 336°
2026-04-26 17:38 50.27898 14.74381 28581 ft 397 kts 336°
2026-04-26 17:39 50.30465 14.72920 28148 ft 394 kts 336°
2026-04-26 17:39 50.33061 14.71439 27707 ft 393 kts 336°
2026-04-26 17:39 50.35594 14.69993 27277 ft 390 kts 336°
2026-04-26 17:39 50.38154 14.68530 26843 ft 388 kts 336°
2026-04-26 17:40 50.40677 14.67087 26414 ft 385 kts 336°
2026-04-26 17:40 50.41523 14.66602 26271 ft 385 kts 337°
2026-04-26 17:40 50.45673 14.64224 25567 ft 381 kts 337°
2026-04-26 17:40 50.48163 14.62794 25145 ft 379 kts 337°
2026-04-26 17:41 50.50641 14.61370 24723 ft 378 kts 337°
2026-04-26 17:41 50.53115 14.59947 24305 ft 375 kts 337°
2026-04-26 17:41 50.55546 14.58546 23894 ft 373 kts 337°
2026-04-26 17:41 50.57969 14.57149 23480 ft 371 kts 337°
2026-04-26 17:42 50.60395 14.55749 23067 ft 367 kts 337°
2026-04-26 17:42 50.62782 14.54369 22663 ft 365 kts 337°
2026-04-26 17:42 50.65197 14.52972 22255 ft 362 kts 337°
2026-04-26 17:42 50.67547 14.51611 21859 ft 360 kts 337°
2026-04-26 17:43 50.69924 14.50233 21457 ft 357 kts 337°
2026-04-26 17:43 50.72256 14.48879 21057 ft 355 kts 337°
2026-04-26 17:43 50.74598 14.47519 20665 ft 352 kts 337°
2026-04-26 17:43 50.76877 14.46193 20281 ft 349 kts 337°
2026-04-26 17:44 50.79185 14.44849 19897 ft 347 kts 337°
2026-04-26 17:44 50.81414 14.43550 19520 ft 344 kts 338°
2026-04-26 17:44 50.83719 14.42205 19131 ft 342 kts 338°
2026-04-26 17:44 50.85951 14.40901 18746 ft 340 kts 338°
2026-04-26 17:45 50.88146 14.39618 18375 ft 338 kts 338°
2026-04-26 17:45 50.90369 14.38313 18000 ft 335 kts 336°
2026-04-26 17:45 50.92256 14.36307 17647 ft 331 kts 311°
2026-04-26 17:45 50.93387 14.33134 17240 ft 332 kts 291°
2026-04-26 17:46 50.94112 14.29612 16846 ft 331 kts 289°
2026-04-26 17:46 50.94780 14.26132 16470 ft 330 kts 288°
2026-04-26 17:46 50.95431 14.22653 16108 ft 328 kts 288°
2026-04-26 17:46 50.96073 14.19175 15749 ft 326 kts 288°
2026-04-26 17:47 50.96707 14.15719 15382 ft 326 kts 288°
2026-04-26 17:47 50.96920 14.14555 15263 ft 325 kts 288°
2026-04-26 17:47 50.97965 14.08833 14673 ft 324 kts 288°
2026-04-26 17:47 50.98595 14.05368 14305 ft 323 kts 288°
2026-04-26 17:48 50.99217 14.01943 13949 ft 315 kts 288°
2026-04-26 17:48 50.99814 13.98651 13609 ft 305 kts 288°
2026-04-26 17:48 51.00397 13.95427 13269 ft 296 kts 288°
2026-04-26 17:48 51.00960 13.92311 12938 ft 287 kts 288°
2026-04-26 17:49 51.01497 13.89335 12622 ft 279 kts 288°
2026-04-26 17:49 51.01997 13.86326 12326 ft 279 kts 279°
2026-04-26 17:49 51.01682 13.83271 12065 ft 285 kts 248°
2026-04-26 17:49 51.00414 13.80837 11687 ft 289 kts 225°
2026-04-26 17:50 50.98915 13.78779 11343 ft 285 kts 225°
2026-04-26 17:50 50.97398 13.76699 11010 ft 282 kts 225°
2026-04-26 17:50 50.95921 13.74674 10706 ft 281 kts 225°
2026-04-26 17:50 50.94449 13.72658 10388 ft 280 kts 225°
2026-04-26 17:51 50.92975 13.70641 10073 ft 280 kts 225°
2026-04-26 17:51 50.91495 13.68618 9755 ft 279 kts 224°
2026-04-26 17:51 50.90013 13.66594 9446 ft 278 kts 224°
2026-04-26 17:51 50.88568 13.64621 9135 ft 276 kts 224°
2026-04-26 17:52 50.87110 13.62632 8823 ft 274 kts 224°
2026-04-26 17:52 50.85680 13.60684 8523 ft 272 kts 224°
2026-04-26 17:52 50.84523 13.58410 8217 ft 263 kts 253°
2026-04-26 17:52 50.84398 13.55623 7945 ft 249 kts 287°
2026-04-26 17:53 50.85206 13.53242 7566 ft 242 kts 307°
2026-04-26 17:53 50.86192 13.51168 7237 ft 225 kts 309°
2026-04-26 17:53 50.87160 13.49257 6940 ft 210 kts 310°
2026-04-26 17:54 50.89015 13.46005 6480 ft 187 kts 335°
2026-04-26 17:54 50.90275 13.45839 6343 ft 188 kts 18°
2026-04-26 17:54 50.91405 13.46950 5961 ft 198 kts 36°
2026-04-26 17:54 50.92504 13.48325 5599 ft 198 kts 38°
2026-04-26 17:55 50.93554 13.49684 5326 ft 195 kts 38°
2026-04-26 17:55 50.94584 13.51046 5084 ft 190 kts 39°
2026-04-26 17:55 50.95586 13.52434 4841 ft 185 kts 40°
2026-04-26 17:55 50.96540 13.53756 4639 ft 177 kts 39°
2026-04-26 17:56 50.97462 13.55019 4410 ft 172 kts 39°
2026-04-26 17:56 50.99161 13.57334 4086 ft 150 kts 39°
2026-04-26 17:57 51.00684 13.59405 3826 ft 143 kts 39°
2026-04-26 17:57 51.01443 13.60437 3660 ft 143 kts 39°
2026-04-26 17:57 51.02202 13.61469 3475 ft 142 kts 39°
2026-04-26 17:57 51.02959 13.62499 3285 ft 144 kts 40°
2026-04-26 17:58 51.05303 13.65692 2672 ft 148 kts 39°
2026-04-26 17:59 51.06859 13.67813 2252 ft 144 kts 39°
2026-04-26 17:59 51.07611 13.68840 2057 ft 146 kts 38°
2026-04-26 17:59 51.08379 13.69888 1852 ft 141 kts 39°
2026-04-26 17:59 51.09114 13.70892 1659 ft 143 kts 38°
2026-04-26 18:00 51.09875 13.71931 1470 ft 141 kts 39°
2026-04-26 18:00 51.10600 13.72919 1280 ft 140 kts 39°
2026-04-26 18:00 51.11342 13.73934 1091 ft 139 kts 39°
2026-04-26 18:00 51.12073 13.74953 920 ft 140 kts 39°
2026-04-26 18:01 51.12801 13.75937 764 ft 132 kts 39°
2026-04-26 18:01 51.13347 13.76677 761 ft 55 kts 46°
2026-04-26 18:01 51.13595 13.77024 761 ft 37 kts 41°
2026-04-26 18:01 51.13752 13.77236 761 ft 25 kts 39°
2026-04-26 18:02 51.13875 13.77409 761 ft 15 kts 43°
2026-04-26 18:02 51.13897 13.77446 761 ft 11 kts 57°
2026-04-26 18:02 51.13849 13.77605 761 ft 8 kts 131°
2026-04-26 18:02 51.13836 13.77630 761 ft 0 kts 131°
2026-04-26 18:03 51.13820 13.77659 761 ft 7 kts 130°
2026-04-26 18:04 51.13764 13.77718 761 ft 12 kts 189°
2026-04-26 18:04 51.13685 13.77625 761 ft 15 kts 221°
2026-04-26 18:04 51.13602 13.77511 761 ft 16 kts 221°
2026-04-26 18:05 51.13419 13.77260 761 ft 18 kts 221°
2026-04-26 18:05 51.13320 13.77123 761 ft 19 kts 221°
2026-04-26 18:05 51.13217 13.76983 761 ft 20 kts 221°
2026-04-26 18:05 51.13110 13.76834 761 ft 20 kts 220°
2026-04-26 18:06 51.12997 13.76678 761 ft 21 kts 220°
2026-04-26 18:06 51.12906 13.76555 761 ft 13 kts 220°
2026-04-26 18:06 51.12836 13.76463 761 ft 11 kts 210°
2026-04-26 18:06 51.12769 13.76498 761 ft 9 kts 133°
2026-04-26 18:07 51.12723 13.76585 761 ft 10 kts 130°
2026-04-26 18:07 51.12678 13.76606 761 ft 7 kts 208°
2026-04-26 18:07 51.12638 13.76560 761 ft 0 kts 221°
2026-04-26 18:07 51.12638 13.76559 761 ft 0 kts 221°
2026-04-26 18:08 51.12626 13.76544 761 ft 0 kts 221°
2026-04-26 18:08 51.12626 13.76543 761 ft 0 kts 221°